Regional Weather Roundup
Issued by NWS

Home | Current Version | Previous Version | Graphics & Text | Print | Product List | Glossary On
Versions: 1 2 3 4 5 6 7 8 9 10 11 12 13 14 15 16 17 18 19 20 21 22 23 24 25 26 27 28 29 30 31 32 33 34 35 36 37 38 39 40 41 42 43 44 45 46 47 48 49 50
442
ASUS43 KDTX 122110
RWRMI
MICHIGAN HOURLY REGIONAL WEATHER ROUNDUP
NATIONAL WEATHER SERVICE DETROIT/PONTIAC MI
ISSUED BY NATIONAL WEATHER SERVICE GRAND RAPIDS MI
400 PM EST TUE DEC 12 2017

NOTE: "FAIR" INDICATES FEW OR NO CLOUDS BELOW 12,000 FEET WITH NO
SIGNIFICANT WEATHER AND/OR OBSTRUCTION TO VISIBILITY.

MIZ047>049-052>055-059>063-066>070-074>076-081>083-122200-
SOUTHEAST LOWER MICHIGAN

CITY           SKY/WX    TMP DP  RH WIND       PRES   REMARKS
ADRIAN         PTCLDY    19   1  45 NW12G24   29.88S WCI   7
ALMA           PTCLDY    18   3  51 NW14G20   29.88S WCI   5
ANN ARBOR      MOCLDY    18   4  54 W12       29.85S WCI   5
BAD AXE        CLOUDY    15   0  53 NW21G28   29.81R WCI  -3
DETROIT CITY   LGT SNOW  18   6  59 NW9G21    29.85R WCI   7
DETROIT        MOCLDY    20   4  50 NW21G26   29.86S WCI   4
FLINT          PTCLDY    17   2  51 NW20G28   29.85R WCI   1
GROSSE ILE     CLOUDY    19   4  51 NW16G26   29.85S WCI   5
HILLSDALE      PTCLDY    19   1  45 NW16G23   29.85S WCI   5
HOWELL         CLOUDY    17   6  61 NW10      29.84S WCI   5

CITY           SKY/WX    TMP DP  RH WIND       PRES   REMARKS
JACKSON        MOCLDY    19   2  47 NW10G21   29.86S WCI   7
LANSING        PTCLDY    16  11  80 NW14      29.89R WCI   2
MASON          LGT SNOW  19  11  70 N13G18    29.87S WCI   6
MONROE         MOCLDY    19   4  51 NW13G18   29.87S WCI   6
MT. CLEMENS    PTCLDY    17   2  53 NW16G28   29.82R WCI   1
PONTIAC        CLOUDY    17   5  59 NW17G32   29.81R WCI   1
PORT HOPE        N/A     16   5  62 NW24G39   29.78R WCI  -2
PORT HURON     CLOUDY    16   3  57 NW13G24   29.82R WCI   2
TRI CITIES     MOCLDY    17   5  59 NW18      29.86S WCI   1
YPSILANTI      CLOUDY    21   7  54 NW18G32   29.86S WCI   6
$$
MIZ043>046-050>051-056>058-064>065-071>073-077>080-122200-
SOUTHWEST LOWER MICHIGAN

CITY           SKY/WX    TMP DP  RH WIND       PRES   REMARKS
BATTLE CREEK   PTCLDY    19   4  51 NW18G25   29.90R WCI   4
BENTON HARBOR  CLOUDY    23  11  60 NW12G21   29.97S HAZE    WCI  12
BIG RAPIDS     CLOUDY    17   8  70 NW8       29.87S WCI   6
COLDWATER      CLOUDY    22   8  55 W16G23    29.89S WCI   8
HOLLAND        FLURRIES  20  14  77 N3        29.95S
GRAND RAPIDS   MOCLDY    19   6  57 NW18      29.91S WCI   4
KALAMAZOO      FLURRIES  19  11  70 NW15      29.92S WCI   5
MARSHALL       CLOUDY    21   2  44 NW9       29.88S WCI  11
MOUNT PLEASANT PTCLDY    19   2  46 N12G21    29.86S WCI   7
MUSKEGON       LGT SNOW  20  11  68 N18G26    29.96S VSB 1   WCI   5
STURGIS        MOCLDY    19  13  77 NW10G17   29.91S WCI   7
$$
MIZ016>042-122200-
NORTHERN LOWER MICHIGAN

CITY           SKY/WX    TMP DP  RH WIND       PRES   REMARKS
ALPENA         CLOUDY    12   2  64 NW17G33   29.83R BLWGSNOWWCI  -5
BEAVER ISLAND  CLOUDY    15   5  64 N12G21    29.90S WCI   2
BELLAIRE       CLOUDY    15   8  71 N6        29.90S WCI   7
CADILLAC       FLURRIES  15   8  73 NW7       29.83S WCI   5
CHARLEVOIX     CLOUDY    16   6  63 NW20G29   29.92S WCI   0
GAYLORD        CLOUDY     9   0  67 VRB7      29.81S WCI  -2
HOUGHTON LAKE  MOCLDY    13   0  56 NW14G23   29.83S WCI  -2
MANISTEE       LGT SNOW  18   9  68 NW15G25   29.92S WCI   3
OSCODA         PTCLDY    13  -3  48 NW17G29   29.82R WCI  -4
PELLSTON       CLOUDY    12   2  64 NW12G21   29.89S WCI  -2
TRAVERSE CITY  SNOW      17  10  74 NW13      29.89S VSB 1/2 WCI   4
LUDINGTON      LGT SNOW  18   7  60 NW12G23   29.94S WCI   6
$$
MIZ007>008-015-122200-
EASTERN UPPER MICHIGAN

CITY           SKY/WX    TMP DP  RH WIND       PRES   REMARKS
KINROSS        FLURRIES   7   1  76 N10       29.87R WCI  -8
MACKINAC ISLAN MOCLDY    12   1  61 NW16G22   29.87R WCI  -5
NEWBERRY       PTCLDY     9   2  75 N7        29.88S WCI  -2
S. S. MARIE    CLEAR      7  -4  60 NW8       29.88R WCI  -6
$$
MIZ004>006-011>014-085-122200-
CENTRAL UPPER MICHIGAN

CITY           SKY/WX    TMP DP  RH WIND       PRES   REMARKS
MANISTIQUE     FLURRIES  13   6  71 N5        29.91S WCI   6
ESCANABA       PTCLDY    16   1  51 NW10      29.96R WCI   4
MENOMINEE      CLOUDY    19   4  51 N8        29.98F WCI   9
SAWYER-GWINN   CLOUDY    10   3  72 NW12      29.91S WCI  -4
$$
MIZ001>003-009>011-084-122200-
WESTERN UPPER MICHIGAN

CITY           SKY/WX    TMP DP  RH WIND       PRES   REMARKS
IRON MOUNTAIN  MOCLDY    14   2  58 NW9       29.91F WCI   2
HOUGHTON       LGT SNOW  11   4  73 W8        29.92F WCI  -1
COPPER HARBOR    N/A     15   8  73 N10       29.95F WCI   2
IRONWOOD       CLOUDY    11   3  70 SW7       29.94F WCI   0
$$

ABBREVIATIONS USED IN REMARKS
   TC - TEMPERATURE IN CELSIUS
  WCI - WIND CHILL INDEX
   HX - HEAT INDEX
  VSB - VISIBILITY





USA.gov is the U.S. government's official web portal to all federal, state and local government web resources and services.